Погода в Маралике

Армения     40°35′00″N   43°52′03″E
темп.,
°C
ветер,
м/с
пор.,
м/с
влажн.,
%
обл.,
%
осадки,
мм/ч
давл.,
гПа
погр.,
м
14 мая, пт
пт1401:00+11ююв11620 0.1 101719
04:00+10с22680 0.1 101822
07:00+11с33700 0.0 101986
10:00+17зюз02495 0.0 1017692
13:00+22ю44310 0.0 10151547
16:00+23ю33256 0.0 10132232
19:00+20ссв124516 0.0 101366
22:00+13с23562 0.0 101633
15 мая, сб
сб1501:00+12с34640 0.0 101756
04:00+11с33670 0.0 101737
07:00+12с23660 0.0 101785
10:00+17сз21500 0.0 1015628
13:00+22юз12377 0.1 10131949
16:00+23вюв323511 0.4 10112202
19:00+19всв22471 0.1 1012154
22:00+14ссв22581 0.1 101421
16 мая, вс
вс1601:00+11с347251 0.1 101560
04:00+10с33782 0.1 101554
07:00+11с23752 0.0 1015100
10:00+18ю35500 0.0 10131006
13:00+21ююв77370 0.0 10101444
16:00+23ю973376 0.0 10092039
19:00+14вюв3769100 0.8 1011229
22:00+12св127143 1.3 101322
17 мая, пн
пн1701:00+11ссв1276100 0.0 101312
04:00+10ссв228038 0.0 101322
07:00+11ссв127547 0.0 101360
10:00+18ю4650100 0.0 1011790
13:00+21ю6639100 0.0 10101025
16:00+22юз343270 0.0 10081827
19:00+12ссв587910 7.6 1012201
22:00+11с127797 8.2 101237
18 мая, вт
вт1801:00+10с338161 0.0 101262
04:00+9с348137 0.0 101165
07:00+11с2378100 0.2 101284
10:00+16зсз1157100 0.4 1010481
13:00+20ююз133412 0.2 10082456
16:00+10с2482100 5.3 1013170
19:00+12зсз227198 1.5 1014233
22:00+9с47842 1.5 1015164